Time,TemperatureF,DewpointF,PressureIn,WindDirection,WindDirectionDegrees,WindSpeedMPH,WindSpeedGustMPH,Humidity,HourlyPrecipIn,Conditions,Clouds,dailyrainin,SolarRadiationWatts/m^2,SoftwareType,DateUTC
2013-01-16 00:02:00,46.4,50.7,29.89,ESE,109,2.0,9.0,44,0.00,,,1.42,0.0,meteohub,2013-01-16 05:02:00,
2013-01-16 00:07:00,46.4,50.7,29.89,ESE,122,0.0,9.0,44,0.00,,,0.00,0.0,meteohub,2013-01-16 05:07:00,
2013-01-16 00:17:00,46.8,50.7,29.89,SSE,157,0.0,5.0,44,0.00,,,0.00,0.0,meteohub,2013-01-16 05:17:00,
2013-01-16 00:22:00,46.8,50.7,29.89,SSE,155,0.0,3.0,44,0.00,,,0.00,0.0,meteohub,2013-01-16 05:22:00,
2013-01-16 00:27:00,46.8,50.0,29.88,SSE,164,3.0,4.0,43,0.00,,,0.00,0.0,meteohub,2013-01-16 05:27:00,
2013-01-16 00:32:00,46.8,50.0,29.88,SE,138,1.0,6.0,43,0.00,,,0.00,0.0,meteohub,2013-01-16 05:32:00,
2013-01-16 00:37:00,46.8,50.0,29.88,SE,141,4.0,6.0,43,0.00,,,0.00,0.0,meteohub,2013-01-16 05:37:00,
2013-01-16 00:42:00,46.8,50.0,29.88,SE,144,4.0,6.0,43,0.00,,,0.00,0.0,meteohub,2013-01-16 05:42:00,
2013-01-16 00:47:00,46.8,50.0,29.88,ESE,111,1.0,6.0,43,0.00,,,0.00,0.0,meteohub,2013-01-16 05:47:00,
2013-01-16 00:52:00,46.6,50.0,29.88,SE,131,3.0,6.0,43,0.00,,,0.00,0.0,meteohub,2013-01-16 05:52:00,
2013-01-16 00:57:00,46.4,50.0,29.87,SE,127,5.0,8.0,43,0.01,,,0.01,0.0,meteohub,2013-01-16 05:57:00,
2013-01-16 01:02:00,46.2,49.8,29.87,SE,142,3.0,8.0,43,0.01,,,0.01,0.0,meteohub,2013-01-16 06:02:00,
2013-01-16 01:07:00,46.2,49.8,29.87,SE,143,5.0,8.0,43,0.01,,,0.01,0.0,meteohub,2013-01-16 06:07:00,
2013-01-16 01:12:00,46.2,49.8,29.87,SE,145,1.0,7.0,43,0.01,,,0.01,0.0,meteohub,2013-01-16 06:12:00,
2013-01-16 01:17:00,46.2,49.8,29.87,SE,144,3.0,6.0,43,0.01,,,0.01,0.0,meteohub,2013-01-16 06:17:00,
2013-01-16 01:22:00,46.2,49.8,29.88,SSE,148,3.0,6.0,43,0.01,,,0.01,0.0,meteohub,2013-01-16 06:22:00,
2013-01-16 01:27:00,46.2,49.8,29.87,ESE,117,3.0,7.0,43,0.01,,,0.01,0.0,meteohub,2013-01-16 06:27:00,
2013-01-16 01:32:00,46.2,49.8,29.87,SE,132,2.0,7.0,43,0.01,,,0.01,0.0,meteohub,2013-01-16 06:32:00,
2013-01-16 01:37:00,46.2,49.8,29.87,ESE,121,2.0,8.0,43,0.02,,,0.02,0.0,meteohub,2013-01-16 06:37:00,
2013-01-16 01:42:00,46.2,49.8,29.87,SE,128,2.0,8.0,43,0.02,,,0.02,0.0,meteohub,2013-01-16 06:42:00,
2013-01-16 01:47:00,46.2,49.8,29.87,ESE,122,4.0,7.0,43,0.02,,,0.02,0.0,meteohub,2013-01-16 06:47:00,
2013-01-16 01:52:00,46.4,49.8,29.86,East,101,2.0,5.0,43,0.02,,,0.02,0.0,meteohub,2013-01-16 06:52:00,
2013-01-16 01:57:00,46.4,49.8,29.87,SSE,148,2.0,4.0,43,0.01,,,0.02,0.0,meteohub,2013-01-16 06:57:00,
2013-01-16 02:07:00,46.4,49.8,29.87,SE,139,5.0,6.0,43,0.02,,,0.03,0.0,meteohub,2013-01-16 07:07:00,
2013-01-16 02:17:00,46.6,49.8,29.86,ESE,111,1.0,8.0,43,0.02,,,0.03,0.0,meteohub,2013-01-16 07:17:00,
2013-01-16 02:27:00,46.4,49.8,29.86,SE,126,0.0,5.0,43,0.02,,,0.03,0.0,meteohub,2013-01-16 07:27:00,
2013-01-16 02:32:00,46.6,49.8,29.87,SE,126,0.0,6.0,43,0.02,,,0.03,0.0,meteohub,2013-01-16 07:32:00,
2013-01-16 02:37:00,46.6,49.8,29.87,ESE,123,1.0,6.0,43,0.01,,,0.03,0.0,meteohub,2013-01-16 07:37:00,
2013-01-16 02:42:00,46.6,49.8,29.87,ESE,119,2.0,5.0,43,0.01,,,0.03,0.0,meteohub,2013-01-16 07:42:00,
2013-01-16 02:47:00,46.4,49.8,29.87,East,94,2.0,5.0,43,0.01,,,0.03,0.0,meteohub,2013-01-16 07:47:00,
2013-01-16 02:52:00,46.4,49.8,29.87,SE,129,3.0,5.0,43,0.01,,,0.03,0.0,meteohub,2013-01-16 07:52:00,
2013-01-16 02:57:00,46.4,49.8,29.87,East,82,1.0,7.0,43,0.01,,,0.03,0.0,meteohub,2013-01-16 07:57:00,
2013-01-16 03:02:00,46.4,49.8,29.87,ESE,121,2.0,7.0,43,0.01,,,0.03,0.0,meteohub,2013-01-16 08:02:00,
2013-01-16 03:07:00,46.4,49.8,29.87,SE,142,2.0,7.0,43,0.00,,,0.03,0.0,meteohub,2013-01-16 08:07:00,
2013-01-16 03:12:00,46.6,49.8,29.87,SSE,160,0.0,5.0,43,0.00,,,0.03,0.0,meteohub,2013-01-16 08:12:00,
2013-01-16 03:17:00,46.6,49.8,29.87,SE,127,0.0,5.0,43,0.00,,,0.03,0.0,meteohub,2013-01-16 08:17:00,
2013-01-16 03:22:00,46.6,49.8,29.87,SE,136,4.0,4.0,43,0.01,,,0.04,0.0,meteohub,2013-01-16 08:22:00,
2013-01-16 03:27:00,46.6,49.8,29.87,ESE,120,0.0,4.0,43,0.01,,,0.04,0.0,meteohub,2013-01-16 08:27:00,
2013-01-16 03:32:00,46.8,49.8,29.87,SE,143,0.0,4.0,43,0.01,,,0.04,0.0,meteohub,2013-01-16 08:32:00,
2013-01-16 03:37:00,46.8,49.8,29.87,ESE,107,1.0,4.0,43,0.01,,,0.04,0.0,meteohub,2013-01-16 08:37:00,
2013-01-16 03:42:00,46.8,49.8,29.86,ESE,109,5.0,5.0,43,0.02,,,0.05,0.0,meteohub,2013-01-16 08:42:00,
2013-01-16 03:47:00,46.8,49.8,29.85,ESE,105,1.0,6.0,43,0.02,,,0.05,0.0,meteohub,2013-01-16 08:47:00,
2013-01-16 03:52:00,46.6,49.8,29.86,South,169,2.0,6.0,43,0.02,,,0.05,0.0,meteohub,2013-01-16 08:52:00,
2013-01-16 03:57:00,46.6,49.8,29.86,SSE,150,2.0,6.0,43,0.02,,,0.05,0.0,meteohub,2013-01-16 08:57:00,
2013-01-16 04:02:00,46.6,49.8,29.86,SE,132,0.0,4.0,43,0.02,,,0.05,0.0,meteohub,2013-01-16 09:02:00,
2013-01-16 04:07:00,46.6,49.8,29.86,SSE,148,0.0,3.0,43,0.02,,,0.05,0.0,meteohub,2013-01-16 09:07:00,
2013-01-16 04:12:00,46.6,49.8,29.85,South,176,1.0,4.0,43,0.02,,,0.05,0.0,meteohub,2013-01-16 09:12:00,
2013-01-16 04:17:00,46.6,49.8,29.85,ESE,113,4.0,4.0,43,0.01,,,0.05,0.0,meteohub,2013-01-16 09:17:00,
2013-01-16 04:22:00,46.8,49.8,29.85,ESE,111,3.0,5.0,43,0.01,,,0.05,0.0,meteohub,2013-01-16 09:22:00,
2013-01-16 04:27:00,46.6,49.8,29.85,ESE,123,0.0,6.0,43,0.01,,,0.05,0.0,meteohub,2013-01-16 09:27:00,
2013-01-16 04:32:00,46.8,49.8,29.85,SE,125,2.0,6.0,43,0.01,,,0.05,0.0,meteohub,2013-01-16 09:32:00,
2013-01-16 04:37:00,46.8,49.8,29.84,ESE,115,4.0,7.0,43,0.02,,,0.06,0.0,meteohub,2013-01-16 09:37:00,
2013-01-16 04:47:00,46.8,49.8,29.83,SE,138,2.0,7.0,43,0.01,,,0.06,0.0,meteohub,2013-01-16 09:47:00,
2013-01-16 04:52:00,46.8,49.8,29.83,SE,127,3.0,6.0,43,0.01,,,0.06,0.0,meteohub,2013-01-16 09:52:00,
2013-01-16 04:57:00,46.8,49.8,29.83,SE,124,3.0,6.0,43,0.01,,,0.06,0.0,meteohub,2013-01-16 09:57:00,
2013-01-16 05:02:00,46.6,49.6,29.83,East,101,3.0,6.0,43,0.01,,,0.06,0.0,meteohub,2013-01-16 10:02:00,
2013-01-16 05:07:00,46.6,49.6,29.83,ESE,123,3.0,8.0,43,0.01,,,0.06,0.0,meteohub,2013-01-16 10:07:00,
2013-01-16 05:12:00,46.6,49.6,29.82,SE,136,3.0,8.0,43,0.01,,,0.06,0.0,meteohub,2013-01-16 10:12:00,
2013-01-16 05:17:00,46.6,49.6,29.82,SE,138,4.0,8.0,43,0.01,,,0.06,0.0,meteohub,2013-01-16 10:17:00,
2013-01-16 05:22:00,46.6,49.6,29.83,ESE,123,0.0,8.0,43,0.01,,,0.06,0.0,meteohub,2013-01-16 10:22:00,
2013-01-16 05:27:00,46.6,49.6,29.83,ESE,117,2.0,8.0,43,0.01,,,0.06,0.0,meteohub,2013-01-16 10:27:00,
2013-01-16 05:32:00,46.8,49.6,29.83,ESE,111,2.0,7.0,43,0.01,,,0.06,0.0,meteohub,2013-01-16 10:32:00,
2013-01-16 05:37:00,46.8,49.6,29.83,SE,127,0.0,7.0,43,0.00,,,0.06,0.0,meteohub,2013-01-16 10:37:00,
2013-01-16 05:42:00,46.9,49.6,29.82,ENE,67,5.0,5.0,43,0.00,,,0.06,0.0,meteohub,2013-01-16 10:42:00,
2013-01-16 05:47:00,46.9,49.6,29.83,SE,132,2.0,8.0,43,0.00,,,0.06,0.0,meteohub,2013-01-16 10:47:00,
2013-01-16 05:52:00,46.9,49.6,29.83,SE,138,1.0,8.0,43,0.00,,,0.06,0.0,meteohub,2013-01-16 10:52:00,
2013-01-16 06:02:00,46.9,49.6,29.83,SE,128,0.0,5.0,43,0.00,,,0.06,0.0,meteohub,2013-01-16 11:02:00,
2013-01-16 06:07:00,47.1,49.6,29.83,ESE,123,0.0,7.0,43,0.00,,,0.06,0.0,meteohub,2013-01-16 11:07:00,
2013-01-16 06:12:00,47.1,49.6,29.83,SSE,159,0.0,7.0,43,0.00,,,0.06,0.0,meteohub,2013-01-16 11:12:00,
2013-01-16 06:17:00,47.1,52.7,29.83,SE,126,4.0,7.0,48,0.00,,,0.06,0.0,meteohub,2013-01-16 11:17:00,
2013-01-16 06:22:00,47.1,51.4,29.84,East,101,2.0,4.0,46,0.00,,,0.06,0.0,meteohub,2013-01-16 11:22:00,
2013-01-16 06:27:00,47.3,50.9,29.84,SE,142,0.0,4.0,45,0.01,,,0.07,0.0,meteohub,2013-01-16 11:27:00,
2013-01-16 06:32:00,47.1,50.9,29.84,SE,137,1.0,5.0,45,0.01,,,0.07,0.0,meteohub,2013-01-16 11:32:00,
2013-01-16 06:37:00,47.1,50.5,29.85,SE,132,0.0,5.0,44,0.01,,,0.07,0.0,meteohub,2013-01-16 11:37:00,
2013-01-16 06:42:00,47.1,50.4,29.84,ESE,106,3.0,3.0,44,0.03,,,0.09,0.0,meteohub,2013-01-16 11:42:00,
2013-01-16 06:47:00,47.3,50.9,29.85,SSE,150,0.0,3.0,45,0.04,,,0.10,0.0,meteohub,2013-01-16 11:47:00,
2013-01-16 06:52:00,47.1,50.9,29.85,SE,132,2.0,3.0,45,0.05,,,0.11,0.0,meteohub,2013-01-16 11:52:00,
2013-01-16 06:57:00,47.3,50.9,29.85,SE,132,0.0,3.0,45,0.05,,,0.11,0.0,meteohub,2013-01-16 11:57:00,
2013-01-16 07:02:00,47.3,50.4,29.86,SE,132,0.0,3.0,44,0.05,,,0.11,0.0,meteohub,2013-01-16 12:02:00,
2013-01-16 07:07:00,47.3,50.4,29.86,SE,132,0.0,2.0,44,0.06,,,0.12,0.0,meteohub,2013-01-16 12:07:00,
2013-01-16 07:12:00,47.5,50.4,29.86,SE,132,1.0,1.0,44,0.08,,,0.14,0.0,meteohub,2013-01-16 12:12:00,
2013-01-16 07:17:00,47.7,50.4,29.86,SE,132,0.0,1.0,44,0.09,,,0.15,0.0,meteohub,2013-01-16 12:17:00,
2013-01-16 07:22:00,47.7,50.4,29.86,SSE,155,1.0,3.0,44,0.09,,,0.16,0.0,meteohub,2013-01-16 12:22:00,
2013-01-16 07:27:00,47.7,50.4,29.86,ESE,121,3.0,4.0,44,0.09,,,0.16,0.0,meteohub,2013-01-16 12:27:00,
2013-01-16 07:32:00,47.8,50.4,29.86,SE,144,3.0,5.0,44,0.09,,,0.16,0.0,meteohub,2013-01-16 12:32:00,
2013-01-16 07:37:00,47.8,50.9,29.87,SE,126,0.0,5.0,45,0.09,,,0.17,0.0,meteohub,2013-01-16 12:37:00,
2013-01-16 07:42:00,47.8,50.9,29.86,SSE,148,2.0,5.0,45,0.09,,,0.17,0.0,meteohub,2013-01-16 12:42:00,
2013-01-16 07:47:00,48.0,50.9,29.86,SSE,147,3.0,4.0,45,0.08,,,0.18,5.0,meteohub,2013-01-16 12:47:00,
2013-01-16 07:52:00,48.0,50.9,29.87,SE,134,0.0,4.0,45,0.07,,,0.18,0.0,meteohub,2013-01-16 12:52:00,
2013-01-16 07:57:00,48.2,50.9,29.87,SSE,152,2.0,4.0,45,0.07,,,0.18,0.0,meteohub,2013-01-16 12:57:00,
2013-01-16 08:02:00,48.0,50.9,29.87,SE,136,3.0,4.0,45,0.06,,,0.18,0.0,meteohub,2013-01-16 13:02:00,
2013-01-16 08:07:00,48.0,50.4,29.87,SSE,157,1.0,4.0,44,0.05,,,0.18,9.0,meteohub,2013-01-16 13:07:00,
2013-01-16 08:12:00,48.0,50.9,29.87,ESE,105,1.0,4.0,45,0.04,,,0.18,12.0,meteohub,2013-01-16 13:12:00,
2013-01-16 08:17:00,48.2,50.9,29.87,ESE,113,2.0,4.0,45,0.02,,,0.18,14.0,meteohub,2013-01-16 13:17:00,
2013-01-16 08:22:00,48.6,50.9,29.87,SE,124,3.0,4.0,45,0.02,,,0.18,16.0,meteohub,2013-01-16 13:22:00,
2013-01-16 08:27:00,48.9,51.1,29.87,SE,144,2.0,4.0,45,0.02,,,0.18,19.0,meteohub,2013-01-16 13:27:00,
2013-01-16 08:32:00,48.9,51.1,29.88,SSE,156,0.0,3.0,45,0.02,,,0.18,21.0,meteohub,2013-01-16 13:32:00,
2013-01-16 08:37:00,48.9,51.3,29.88,SSE,156,0.0,4.0,45,0.01,,,0.18,12.0,meteohub,2013-01-16 13:37:00,
2013-01-16 08:42:00,48.9,51.3,29.88,SSE,156,0.0,4.0,45,0.00,,,0.18,18.0,meteohub,2013-01-16 13:42:00,
2013-01-16 08:47:00,49.1,51.3,29.88,SSE,168,3.0,4.0,45,0.01,,,0.19,47.0,meteohub,2013-01-16 13:47:00,
2013-01-16 08:52:00,49.3,50.9,29.88,ESE,123,0.0,4.0,44,0.01,,,0.19,60.0,meteohub,2013-01-16 13:52:00,
2013-01-16 08:57:00,49.3,51.3,29.88,SE,130,3.0,4.0,45,0.01,,,0.19,49.0,meteohub,2013-01-16 13:57:00,
2013-01-16 09:02:00,49.1,51.3,29.89,SSE,148,1.0,5.0,45,0.01,,,0.19,16.0,meteohub,2013-01-16 14:02:00,
2013-01-16 09:07:00,49.3,51.3,29.90,SSE,148,0.0,5.0,45,0.01,,,0.19,9.0,meteohub,2013-01-16 14:07:00,
2013-01-16 09:12:00,49.5,51.3,29.90,SSE,160,3.0,5.0,45,0.01,,,0.19,14.0,meteohub,2013-01-16 14:12:00,
2013-01-16 09:17:00,50.2,51.4,29.90,SSW,200,3.0,7.0,45,0.01,,,0.19,19.0,meteohub,2013-01-16 14:17:00,
2013-01-16 09:22:00,50.2,50.9,29.90,ESE,122,8.0,10.0,44,0.02,,,0.19,44.0,meteohub,2013-01-16 14:22:00,
2013-01-16 09:27:00,50.2,50.9,29.91,NE,47,3.0,10.0,44,0.02,,,0.20,14.0,meteohub,2013-01-16 14:27:00,
2013-01-16 09:32:00,50.4,51.4,29.91,ESE,121,5.0,10.0,45,0.02,,,0.20,37.0,meteohub,2013-01-16 14:32:00,
2013-01-16 09:37:00,50.2,51.4,29.92,SSE,151,4.0,9.0,45,0.03,,,0.21,26.0,meteohub,2013-01-16 14:37:00,
2013-01-16 09:42:00,49.8,51.4,29.91,SE,136,2.0,8.0,45,0.02,,,0.21,44.0,meteohub,2013-01-16 14:42:00,
2013-01-16 09:47:00,49.6,51.4,29.92,ESE,121,4.0,8.0,45,0.02,,,0.21,28.0,meteohub,2013-01-16 14:47:00,
2013-01-16 09:52:00,49.6,51.6,29.92,East,95,1.0,7.0,45,0.02,,,0.21,21.0,meteohub,2013-01-16 14:52:00,
2013-01-16 09:57:00,49.6,51.6,29.93,SE,134,3.0,7.0,45,0.02,,,0.21,21.0,meteohub,2013-01-16 14:57:00,
2013-01-16 10:02:00,49.6,50.9,29.92,ESE,104,4.0,7.0,44,0.02,,,0.21,32.0,meteohub,2013-01-16 15:02:00,
2013-01-16 10:07:00,49.6,51.6,29.92,SE,136,9.0,10.0,45,0.03,,,0.22,25.0,meteohub,2013-01-16 15:07:00,
2013-01-16 10:12:00,49.6,51.4,29.92,ESE,122,4.0,10.0,45,0.03,,,0.22,37.0,meteohub,2013-01-16 15:12:00,
2013-01-16 10:17:00,49.5,51.4,29.93,South,174,5.0,10.0,45,0.04,,,0.23,19.0,meteohub,2013-01-16 15:17:00,
2013-01-16 10:22:00,49.5,51.4,29.93,SSE,159,5.0,9.0,45,0.03,,,0.23,19.0,meteohub,2013-01-16 15:22:00,
2013-01-16 10:27:00,49.5,51.6,29.93,ESE,115,1.0,10.0,45,0.04,,,0.24,26.0,meteohub,2013-01-16 15:27:00,
2013-01-16 10:32:00,49.5,51.6,29.93,SE,129,3.0,10.0,45,0.04,,,0.24,33.0,meteohub,2013-01-16 15:32:00,
2013-01-16 10:37:00,49.5,51.6,29.93,SE,133,0.0,8.0,45,0.03,,,0.24,30.0,meteohub,2013-01-16 15:37:00,
2013-01-16 10:42:00,49.5,51.8,29.94,ESE,110,0.0,8.0,45,0.03,,,0.24,35.0,meteohub,2013-01-16 15:42:00,
2013-01-16 10:47:00,49.5,51.8,29.94,SSW,195,0.0,7.0,45,0.03,,,0.24,49.0,meteohub,2013-01-16 15:47:00,
2013-01-16 10:52:00,49.5,51.1,29.93,South,188,0.0,3.0,44,0.04,,,0.25,65.0,meteohub,2013-01-16 15:52:00,
2013-01-16 10:57:00,49.6,51.6,29.93,East,80,0.0,2.0,45,0.04,,,0.25,33.0,meteohub,2013-01-16 15:57:00,
2013-01-16 11:02:00,49.6,51.6,29.92,East,80,0.0,2.0,45,0.03,,,0.25,62.0,meteohub,2013-01-16 16:02:00,
2013-01-16 11:07:00,49.8,51.6,29.93,NNE,32,0.0,2.0,45,0.03,,,0.25,40.0,meteohub,2013-01-16 16:07:00,
2013-01-16 11:12:00,49.8,51.8,29.92,ESE,107,0.0,2.0,45,0.03,,,0.25,123.0,meteohub,2013-01-16 16:12:00,
2013-01-16 11:17:00,50.2,51.8,29.90,ESE,109,3.0,3.0,45,0.02,,,0.25,250.0,meteohub,2013-01-16 16:17:00,
2013-01-16 11:22:00,50.7,51.8,29.89,SE,129,4.0,6.0,45,0.02,,,0.25,294.0,meteohub,2013-01-16 16:22:00,
2013-01-16 11:27:00,50.9,52.0,29.89,South,170,3.0,7.0,45,0.01,,,0.25,241.0,meteohub,2013-01-16 16:27:00,
2013-01-16 11:32:00,50.9,52.0,29.89,South,171,2.0,7.0,45,0.01,,,0.25,179.0,meteohub,2013-01-16 16:32:00,
2013-01-16 11:37:00,51.1,51.1,29.89,SSE,157,0.0,7.0,44,0.01,,,0.25,134.0,meteohub,2013-01-16 16:37:00,
2013-01-16 11:47:00,51.3,52.0,29.90,SSE,157,0.0,3.0,45,0.00,,,0.25,79.0,meteohub,2013-01-16 16:47:00,
2013-01-16 11:52:00,51.4,52.0,29.90,SSE,157,0.0,3.0,45,0.00,,,0.25,74.0,meteohub,2013-01-16 16:52:00,
2013-01-16 11:57:00,51.4,52.0,29.89,SSE,157,0.0,3.0,45,0.00,,,0.25,77.0,meteohub,2013-01-16 16:57:00,
2013-01-16 12:02:00,51.6,52.2,29.89,SSE,157,0.0,3.0,45,0.00,,,0.25,88.0,meteohub,2013-01-16 17:02:00,
2013-01-16 12:07:00,52.0,51.4,29.88,ESE,108,1.0,2.0,44,0.00,,,0.25,111.0,meteohub,2013-01-16 17:07:00,
2013-01-16 12:12:00,52.0,52.2,29.89,North,9,0.0,2.0,45,0.00,,,0.25,153.0,meteohub,2013-01-16 17:12:00,
2013-01-16 12:17:00,52.2,52.2,29.88,NW,323,0.0,2.0,45,0.00,,,0.25,193.0,meteohub,2013-01-16 17:17:00,
2013-01-16 12:22:00,52.7,52.2,29.88,NW,323,0.0,2.0,45,0.00,,,0.25,221.0,meteohub,2013-01-16 17:22:00,
2013-01-16 12:27:00,53.2,52.2,29.88,NW,323,1.0,2.0,45,0.00,,,0.25,283.0,meteohub,2013-01-16 17:27:00,
2013-01-16 12:32:00,54.0,52.2,29.88,NW,323,0.0,2.0,45,0.00,,,0.25,350.0,meteohub,2013-01-16 17:32:00,
2013-01-16 12:37:00,54.1,52.2,29.88,West,263,1.0,2.0,45,0.00,,,0.25,294.0,meteohub,2013-01-16 17:37:00,
2013-01-16 12:42:00,54.3,51.6,29.88,West,262,0.0,3.0,44,0.00,,,0.25,287.0,meteohub,2013-01-16 17:42:00,
2013-01-16 12:47:00,55.0,52.2,29.87,West,262,1.0,3.0,45,0.00,,,0.25,654.0,meteohub,2013-01-16 17:47:00,
2013-01-16 12:52:00,55.8,52.2,29.87,West,261,2.0,2.0,45,0.00,,,0.25,232.0,meteohub,2013-01-16 17:52:00,
2013-01-16 12:57:00,55.6,52.2,29.88,WSW,244,0.0,4.0,45,0.00,,,0.25,244.0,meteohub,2013-01-16 17:57:00,
2013-01-16 13:02:00,55.4,52.2,29.88,WSW,244,0.0,4.0,45,0.00,,,0.25,223.0,meteohub,2013-01-16 18:02:00,
2013-01-16 13:07:00,55.2,52.2,29.87,WSW,244,0.0,4.0,45,0.00,,,0.25,272.0,meteohub,2013-01-16 18:07:00,
2013-01-16 13:12:00,56.1,52.2,29.86,WSW,244,0.0,2.0,45,0.00,,,0.25,329.0,meteohub,2013-01-16 18:12:00,
2013-01-16 13:17:00,57.0,52.9,29.86,SE,134,0.0,2.0,46,0.00,,,0.25,309.0,meteohub,2013-01-16 18:17:00,
2013-01-16 13:22:00,57.2,52.9,29.86,SE,136,0.0,3.0,46,0.00,,,0.25,329.0,meteohub,2013-01-16 18:22:00,
2013-01-16 13:27:00,59.2,52.9,29.86,ESE,119,0.0,3.0,46,0.00,,,0.25,650.0,meteohub,2013-01-16 18:27:00,
2013-01-16 13:32:00,59.0,53.1,29.87,NNW,330,1.0,3.0,46,0.00,,,0.25,288.0,meteohub,2013-01-16 18:32:00,
2013-01-16 13:37:00,58.5,52.3,29.86,East,79,0.0,3.0,45,0.00,,,0.25,269.0,meteohub,2013-01-16 18:37:00,
2013-01-16 13:42:00,59.2,51.6,29.86,East,87,0.0,3.0,44,0.00,,,0.25,223.0,meteohub,2013-01-16 18:42:00,
2013-01-16 13:47:00,58.8,52.9,29.86,East,83,0.0,2.0,46,0.00,,,0.25,197.0,meteohub,2013-01-16 18:47:00,
2013-01-16 13:52:00,59.2,52.9,29.86,North,355,1.0,2.0,46,0.00,,,0.25,169.0,meteohub,2013-01-16 18:52:00,
2013-01-16 13:57:00,59.2,52.9,29.86,North,11,2.0,2.0,46,0.00,,,0.25,90.0,meteohub,2013-01-16 18:57:00,
2013-01-16 14:02:00,59.2,52.9,29.86,North,11,0.0,2.0,46,0.00,,,0.25,54.0,meteohub,2013-01-16 19:02:00,
2013-01-16 14:07:00,58.8,53.1,29.86,NNW,336,0.0,2.0,46,0.00,,,0.25,46.0,meteohub,2013-01-16 19:07:00,
2013-01-16 14:12:00,58.8,52.3,29.86,NNW,336,0.0,2.0,45,0.00,,,0.25,44.0,meteohub,2013-01-16 19:12:00,
2013-01-16 14:17:00,58.5,52.9,29.86,NNW,336,0.0,2.0,46,0.00,,,0.25,32.0,meteohub,2013-01-16 19:17:00,
2013-01-16 14:22:00,58.3,52.9,29.86,ENE,60,1.0,1.0,46,0.00,,,0.25,32.0,meteohub,2013-01-16 19:22:00,
2013-01-16 14:27:00,57.7,53.1,29.86,East,88,0.0,3.0,46,0.00,,,0.25,33.0,meteohub,2013-01-16 19:27:00,
2013-01-16 14:32:00,57.6,53.1,29.86,East,88,0.0,3.0,46,0.00,,,0.25,40.0,meteohub,2013-01-16 19:32:00,
2013-01-16 14:37:00,57.7,53.1,29.86,East,88,0.0,3.0,46,0.00,,,0.25,39.0,meteohub,2013-01-16 19:37:00,
2013-01-16 14:42:00,58.3,52.3,29.86,East,88,0.0,1.0,45,0.00,,,0.25,35.0,meteohub,2013-01-16 19:42:00,
2013-01-16 14:47:00,57.9,53.1,29.87,NW,320,1.0,1.0,46,0.00,,,0.25,40.0,meteohub,2013-01-16 19:47:00,
2013-01-16 14:52:00,57.7,53.1,29.87,NNW,337,1.0,3.0,46,0.00,,,0.25,39.0,meteohub,2013-01-16 19:52:00,
2013-01-16 14:57:00,57.6,53.1,29.87,SE,131,0.0,3.0,46,0.00,,,0.25,39.0,meteohub,2013-01-16 19:57:00,
2013-01-16 15:02:00,57.0,53.6,29.87,SE,134,4.0,4.0,47,0.00,,,0.25,37.0,meteohub,2013-01-16 20:02:00,
2013-01-16 15:07:00,56.5,53.2,29.87,ESE,111,2.0,5.0,46,0.00,,,0.25,35.0,meteohub,2013-01-16 20:07:00,
2013-01-16 15:12:00,55.9,52.5,29.87,ESE,113,2.0,5.0,45,0.00,,,0.25,33.0,meteohub,2013-01-16 20:12:00,
2013-01-16 15:17:00,55.6,53.1,29.86,SE,138,0.0,8.0,46,0.00,,,0.25,53.0,meteohub,2013-01-16 20:17:00,
2013-01-16 15:22:00,55.2,53.4,29.87,SE,137,3.0,8.0,47,0.00,,,0.25,51.0,meteohub,2013-01-16 20:22:00,
2013-01-16 15:27:00,55.2,53.4,29.87,ESE,103,7.0,7.0,47,0.00,,,0.25,67.0,meteohub,2013-01-16 20:27:00,
2013-01-16 15:32:00,55.0,53.4,29.88,SE,144,3.0,9.0,47,0.00,,,0.25,56.0,meteohub,2013-01-16 20:32:00,
2013-01-16 15:37:00,55.0,53.6,29.88,ESE,115,3.0,9.0,47,0.00,,,0.25,46.0,meteohub,2013-01-16 20:37:00,
2013-01-16 15:42:00,55.0,53.6,29.87,East,97,6.0,9.0,47,0.00,,,0.25,60.0,meteohub,2013-01-16 20:42:00,
2013-01-16 15:47:00,55.0,53.1,29.88,SE,130,5.0,7.0,46,0.00,,,0.25,46.0,meteohub,2013-01-16 20:47:00,
2013-01-16 15:52:00,55.0,53.6,29.88,ESE,123,1.0,6.0,47,0.00,,,0.25,33.0,meteohub,2013-01-16 20:52:00,
2013-01-16 15:57:00,54.9,53.8,29.88,ESE,123,0.0,6.0,47,0.00,,,0.25,35.0,meteohub,2013-01-16 20:57:00,
2013-01-16 16:02:00,54.9,54.0,29.88,SE,134,5.0,5.0,47,0.00,,,0.25,33.0,meteohub,2013-01-16 21:02:00,
2013-01-16 16:07:00,54.9,54.0,29.88,ESE,106,0.0,5.0,47,0.00,,,0.25,46.0,meteohub,2013-01-16 21:07:00,
2013-01-16 16:12:00,54.7,54.0,29.88,ENE,65,0.0,5.0,47,0.00,,,0.25,39.0,meteohub,2013-01-16 21:12:00,
2013-01-16 16:17:00,54.7,52.7,29.89,North,355,0.0,5.0,45,0.01,,,0.26,12.0,meteohub,2013-01-16 21:17:00,
2013-01-16 16:22:00,54.5,53.2,29.89,WNW,291,0.0,2.0,46,0.01,,,0.26,23.0,meteohub,2013-01-16 21:22:00,
2013-01-16 16:27:00,54.3,53.6,29.89,WNW,291,0.0,3.0,47,0.01,,,0.26,16.0,meteohub,2013-01-16 21:27:00,
2013-01-16 16:32:00,54.3,53.6,29.89,WNW,291,0.0,3.0,47,0.01,,,0.26,19.0,meteohub,2013-01-16 21:32:00,
2013-01-16 16:37:00,54.1,53.6,29.89,WNW,291,1.0,3.0,47,0.01,,,0.26,25.0,meteohub,2013-01-16 21:37:00,
2013-01-16 16:42:00,54.1,53.6,29.89,WNW,291,0.0,2.0,47,0.01,,,0.26,30.0,meteohub,2013-01-16 21:42:00,
2013-01-16 16:47:00,54.0,53.1,29.89,WNW,291,0.0,1.0,46,0.01,,,0.26,25.0,meteohub,2013-01-16 21:47:00,
2013-01-16 16:52:00,54.0,52.3,29.89,WNW,291,0.0,1.0,45,0.01,,,0.26,19.0,meteohub,2013-01-16 21:52:00,
2013-01-16 16:57:00,53.8,52.9,29.89,WNW,291,0.0,1.0,46,0.02,,,0.27,21.0,meteohub,2013-01-16 21:57:00,
2013-01-16 17:02:00,53.6,53.4,29.89,NNW,334,0.0,1.0,47,0.02,,,0.27,26.0,meteohub,2013-01-16 22:02:00,
2013-01-16 17:07:00,53.4,53.2,29.89,NNW,330,0.0,2.0,47,0.02,,,0.27,18.0,meteohub,2013-01-16 22:07:00,
2013-01-16 17:12:00,53.2,53.2,29.89,NNW,331,0.0,2.0,47,0.02,,,0.27,11.0,meteohub,2013-01-16 22:12:00,
2013-01-16 17:17:00,53.1,53.2,29.90,NNW,331,0.0,2.0,47,0.01,,,0.27,12.0,meteohub,2013-01-16 22:17:00,
2013-01-16 17:22:00,52.7,52.9,29.90,NNW,331,0.0,2.0,46,0.01,,,0.27,14.0,meteohub,2013-01-16 22:22:00,
2013-01-16 17:27:00,52.5,52.7,29.89,NNW,331,0.0,1.0,46,0.01,,,0.27,7.0,meteohub,2013-01-16 22:27:00,
2013-01-16 17:32:00,52.5,52.5,29.90,NNW,330,0.0,0.0,46,0.01,,,0.27,0.0,meteohub,2013-01-16 22:32:00,
2013-01-16 17:37:00,52.3,52.3,29.90,NNW,331,0.0,0.0,46,0.02,,,0.28,0.0,meteohub,2013-01-16 22:37:00,
2013-01-16 17:42:00,52.2,52.3,29.90,NNW,330,0.0,0.0,46,0.02,,,0.28,0.0,meteohub,2013-01-16 22:42:00,
2013-01-16 17:47:00,52.0,52.5,29.90,NNW,330,1.0,0.0,46,0.02,,,0.28,0.0,meteohub,2013-01-16 22:47:00,
2013-01-16 17:52:00,51.8,52.5,29.91,NNW,335,1.0,2.0,46,0.01,,,0.28,0.0,meteohub,2013-01-16 22:52:00,
2013-01-16 17:57:00,51.8,52.5,29.91,NNW,335,2.0,3.0,46,0.01,,,0.28,0.0,meteohub,2013-01-16 22:57:00,
2013-01-16 18:02:00,51.8,52.5,29.90,North,355,1.0,3.0,46,0.01,,,0.28,0.0,meteohub,2013-01-16 23:02:00,
2013-01-16 18:07:00,51.6,52.0,29.90,North,355,0.0,3.0,45,0.01,,,0.28,0.0,meteohub,2013-01-16 23:07:00,
2013-01-16 18:12:00,51.4,52.3,29.89,North,355,0.0,2.0,46,0.01,,,0.28,0.0,meteohub,2013-01-16 23:12:00,
2013-01-16 18:17:00,51.4,52.2,29.90,North,355,0.0,2.0,46,0.01,,,0.28,0.0,meteohub,2013-01-16 23:17:00,
2013-01-16 18:22:00,51.4,52.2,29.90,North,355,0.0,1.0,46,0.01,,,0.28,0.0,meteohub,2013-01-16 23:22:00,
2013-01-16 18:27:00,51.3,52.2,29.90,North,355,0.0,0.0,46,0.01,,,0.28,0.0,meteohub,2013-01-16 23:27:00,
2013-01-16 18:32:00,51.1,52.2,29.90,North,355,0.0,0.0,46,0.01,,,0.28,0.0,meteohub,2013-01-16 23:32:00,
2013-01-16 18:37:00,51.1,52.2,29.91,North,355,0.0,0.0,46,0.00,,,0.28,0.0,meteohub,2013-01-16 23:37:00,
2013-01-16 18:42:00,51.1,52.3,29.91,North,355,0.0,0.0,46,0.00,,,0.28,0.0,meteohub,2013-01-16 23:42:00,
2013-01-16 18:47:00,51.1,52.3,29.90,North,355,0.0,0.0,46,0.00,,,0.28,0.0,meteohub,2013-01-16 23:47:00,
2013-01-16 18:52:00,51.1,52.3,29.91,North,355,0.0,0.0,46,0.00,,,0.28,0.0,meteohub,2013-01-16 23:52:00,
2013-01-16 18:57:00,51.1,51.8,29.90,North,355,0.0,0.0,45,0.00,,,0.28,0.0,meteohub,2013-01-16 23:57:00,
2013-01-16 19:02:00,51.1,51.6,29.91,North,355,0.0,0.0,45,0.00,,,0.28,0.0,meteohub,2013-01-17 00:02:00,
2013-01-16 19:07:00,51.1,52.2,29.91,North,355,0.0,0.0,46,0.00,,,0.28,0.0,meteohub,2013-01-17 00:07:00,
2013-01-16 19:12:00,51.1,52.0,29.91,North,355,0.0,0.0,46,0.00,,,0.28,0.0,meteohub,2013-01-17 00:12:00,
2013-01-16 19:17:00,51.1,52.0,29.91,North,355,0.0,0.0,46,0.00,,,0.28,0.0,meteohub,2013-01-17 00:17:00,
2013-01-16 19:22:00,51.1,52.2,29.91,North,355,0.0,0.0,46,0.00,,,0.28,0.0,meteohub,2013-01-17 00:22:00,
2013-01-16 19:27:00,51.1,52.2,29.91,North,355,0.0,0.0,46,0.00,,,0.28,0.0,meteohub,2013-01-17 00:27:00,
2013-01-16 19:32:00,51.1,52.2,29.91,North,355,0.0,0.0,46,0.00,,,0.28,0.0,meteohub,2013-01-17 00:32:00,
2013-01-16 19:37:00,51.1,52.2,29.91,North,355,0.0,0.0,46,0.00,,,0.28,0.0,meteohub,2013-01-17 00:37:00,
2013-01-16 19:42:00,51.1,52.2,29.91,North,355,0.0,0.0,46,0.00,,,0.28,0.0,meteohub,2013-01-17 00:42:00,
2013-01-16 19:47:00,51.1,52.2,29.90,North,355,0.0,0.0,46,0.00,,,0.28,0.0,meteohub,2013-01-17 00:47:00,
2013-01-16 19:52:00,51.1,51.6,29.90,North,355,1.0,2.0,45,0.00,,,0.28,0.0,meteohub,2013-01-17 00:52:00,
2013-01-16 19:57:00,50.9,51.6,29.91,North,355,0.0,2.0,45,0.00,,,0.28,0.0,meteohub,2013-01-17 00:57:00,
2013-01-16 20:02:00,51.1,51.4,29.91,North,355,0.0,3.0,45,0.00,,,0.28,0.0,meteohub,2013-01-17 01:02:00,
2013-01-16 20:07:00,51.1,52.0,29.91,North,355,0.0,3.0,46,0.00,,,0.28,0.0,meteohub,2013-01-17 01:07:00,
2013-01-16 20:12:00,51.1,52.0,29.91,North,355,0.0,3.0,46,0.00,,,0.28,0.0,meteohub,2013-01-17 01:12:00,
2013-01-16 20:22:00,50.9,52.0,29.91,North,355,0.0,0.0,46,0.00,,,0.28,0.0,meteohub,2013-01-17 01:22:00,
2013-01-16 20:32:00,50.9,51.4,29.90,North,355,0.0,0.0,45,0.00,,,0.28,0.0,meteohub,2013-01-17 01:32:00,
2013-01-16 20:37:00,50.9,51.6,29.89,North,355,1.0,0.0,45,0.00,,,0.28,0.0,meteohub,2013-01-17 01:37:00,
2013-01-16 20:42:00,50.7,51.6,29.91,South,190,3.0,3.0,45,0.01,,,0.29,0.0,meteohub,2013-01-17 01:42:00,
2013-01-16 20:47:00,50.7,51.6,29.91,South,190,0.0,4.0,45,0.01,,,0.29,0.0,meteohub,2013-01-17 01:47:00,
2013-01-16 20:52:00,50.7,51.6,29.91,South,190,0.0,4.0,45,0.01,,,0.29,0.0,meteohub,2013-01-17 01:52:00,
2013-01-16 20:57:00,50.7,51.4,29.92,South,189,0.0,4.0,45,0.01,,,0.29,0.0,meteohub,2013-01-17 01:57:00,
2013-01-16 21:02:00,50.7,51.3,29.91,South,190,0.0,1.0,45,0.01,,,0.29,0.0,meteohub,2013-01-17 02:02:00,
2013-01-16 21:07:00,50.7,51.3,29.92,WSW,258,0.0,1.0,45,0.01,,,0.29,0.0,meteohub,2013-01-17 02:07:00,
2013-01-16 21:12:00,50.7,51.3,29.91,WSW,258,0.0,2.0,45,0.02,,,0.30,0.0,meteohub,2013-01-17 02:12:00,
2013-01-16 21:17:00,50.7,51.3,29.91,NNW,328,0.0,2.0,45,0.02,,,0.30,0.0,meteohub,2013-01-17 02:17:00,
2013-01-16 21:22:00,50.7,51.3,29.91,North,350,2.0,2.0,45,0.02,,,0.30,0.0,meteohub,2013-01-17 02:22:00,
2013-01-16 21:27:00,50.7,51.3,29.91,North,351,0.0,3.0,45,0.02,,,0.30,0.0,meteohub,2013-01-17 02:27:00,
2013-01-16 21:32:00,50.7,51.4,29.92,West,263,0.0,3.0,45,0.02,,,0.30,0.0,meteohub,2013-01-17 02:32:00,
2013-01-16 21:37:00,50.7,51.4,29.91,West,265,0.0,3.0,45,0.02,,,0.30,0.0,meteohub,2013-01-17 02:37:00,
2013-01-16 21:47:00,50.7,51.4,29.92,West,263,0.0,1.0,45,0.02,,,0.31,0.0,meteohub,2013-01-17 02:47:00,
2013-01-16 21:52:00,50.5,51.4,29.92,West,263,0.0,3.0,45,0.02,,,0.31,0.0,meteohub,2013-01-17 02:52:00,
2013-01-16 21:57:00,50.5,51.4,29.92,West,263,0.0,3.0,45,0.02,,,0.31,0.0,meteohub,2013-01-17 02:57:00,
2013-01-16 22:02:00,50.5,51.4,29.92,West,263,0.0,3.0,45,0.04,,,0.33,0.0,meteohub,2013-01-17 03:02:00,
2013-01-16 22:07:00,50.5,51.4,29.91,West,263,0.0,0.0,45,0.04,,,0.33,0.0,meteohub,2013-01-17 03:07:00,
2013-01-16 22:12:00,50.5,51.4,29.91,South,180,2.0,0.0,45,0.04,,,0.34,0.0,meteohub,2013-01-17 03:12:00,
2013-01-16 22:17:00,50.5,51.4,29.91,South,171,0.0,3.0,45,0.04,,,0.34,0.0,meteohub,2013-01-17 03:17:00,
2013-01-16 22:22:00,50.5,51.4,29.91,South,171,0.0,3.0,45,0.04,,,0.34,0.0,meteohub,2013-01-17 03:22:00,
2013-01-16 22:27:00,50.5,51.4,29.89,ENE,71,1.0,3.0,45,0.05,,,0.35,0.0,meteohub,2013-01-17 03:27:00,
2013-01-16 22:32:00,50.5,51.4,29.90,ENE,71,0.0,3.0,45,0.05,,,0.35,0.0,meteohub,2013-01-17 03:32:00,
2013-01-16 22:37:00,50.5,51.4,29.90,NNE,24,1.0,3.0,45,0.05,,,0.35,0.0,meteohub,2013-01-17 03:37:00,
2013-01-16 22:47:00,50.5,51.3,29.90,NNE,24,0.0,2.0,45,0.05,,,0.36,0.0,meteohub,2013-01-17 03:47:00,
2013-01-16 22:52:00,50.5,51.1,29.90,NE,37,0.0,2.0,45,0.05,,,0.36,0.0,meteohub,2013-01-17 03:52:00,
2013-01-16 22:57:00,50.5,51.1,29.90,NE,37,0.0,1.0,45,0.04,,,0.36,0.0,meteohub,2013-01-17 03:57:00,
2013-01-16 23:02:00,50.5,51.1,29.90,NE,37,0.0,1.0,45,0.03,,,0.36,0.0,meteohub,2013-01-17 04:02:00,
2013-01-16 23:07:00,50.5,51.1,29.90,NNE,22,2.0,2.0,45,0.02,,,0.36,0.0,meteohub,2013-01-17 04:07:00,
2013-01-16 23:12:00,50.5,51.1,29.89,NNE,20,0.0,3.0,45,0.02,,,0.36,0.0,meteohub,2013-01-17 04:12:00,
2013-01-16 23:17:00,50.4,51.3,29.89,NNE,20,0.0,3.0,45,0.02,,,0.36,0.0,meteohub,2013-01-17 04:17:00,
2013-01-16 23:22:00,50.4,51.3,29.88,NNE,20,0.0,3.0,45,0.03,,,0.37,0.0,meteohub,2013-01-17 04:22:00,
2013-01-16 23:27:00,50.4,51.3,29.88,ESE,122,1.0,2.0,45,0.02,,,0.37,0.0,meteohub,2013-01-17 04:27:00,
2013-01-16 23:32:00,50.4,51.3,29.88,ESE,122,0.0,1.0,45,0.02,,,0.37,0.0,meteohub,2013-01-17 04:32:00,
2013-01-16 23:37:00,50.4,51.3,29.88,ESE,122,0.0,1.0,45,0.03,,,0.38,0.0,meteohub,2013-01-17 04:37:00,
2013-01-16 23:42:00,50.4,51.3,29.87,ESE,122,0.0,1.0,45,0.02,,,0.38,0.0,meteohub,2013-01-17 04:42:00,
2013-01-16 23:47:00,50.4,51.3,29.87,ESE,122,0.0,2.0,45,0.02,,,0.38,0.0,meteohub,2013-01-17 04:47:00,
2013-01-16 23:52:00,50.4,51.3,29.88,ESE,122,0.0,2.0,45,0.02,,,0.38,0.0,meteohub,2013-01-17 04:52:00,
2013-01-16 23:57:00,50.4,51.3,29.88,ESE,122,0.0,2.0,45,0.02,,,0.38,0.0,meteohub,2013-01-17 04:57:00,